Minneapolis Flying Cloud, MN

1:29 PM CDT on April 22, 2018 (GMT -0500)
Flying Cloud

Weather History for KFCM - March, 2013

Change the Weather History Date:

Tuesday, March 5, 2013

  Actual Average Record
Temperature  
Mean Temperature 26 °F -  
Max Temperature 30 °F 27 °F 59 °F (2017)
Min Temperature 21 °F 13 °F -9 °F (2015)
Degree Days  
Heating Degree Days 40    
Moisture  
Dew Point 21 °F    
Average Humidity 81    
Maximum Humidity 93    
Minimum Humidity 69    
Precipitation  
Precipitation 0.15 in - - ()
Sea Level Pressure  
Sea Level Pressure 30.08 in    
Wind  
Wind Speed 8 mph (NNE)    
Max Wind Speed 13 mph    
Max Gust Speed 17 mph    
Visibility 4 miles    
Events Fog , Snow    
Averages and records for this station are not official NWS values.
T = Trace of Precipitation, MM = Missing Value Source: NWS Daily Summary

Daily Weather History Graph

Daily Weather History Graph

Search for Another Location

Airport or City:

Astronomy

Mar. 05, 2013 Rise Set
Actual Time 6:43 AM CST 6:07 PM CST
Civil Twilight 6:14 AM CST 6:36 PM CST
Nautical Twilight 5:40 AM CST 7:10 PM CST
Astronomical Twilight 5:06 AM CST 7:44 PM CST
Moon 2:08 AM CST (3/5) 11:35 AM CST (3/5)
Length of Visible Light 12h 21m
Length of Day
11h 23m
Last Quarter, 40% of the Moon is Illuminated
Mar 5
Last Quarter
Mar 11
New
Mar 19
First Quarter
Mar 27
Full
Apr 2
Last Quarter

Hourly Weather History & Observations

Time (CST) Temp. Windchill Dew Point Humidity Pressure Visibility Wind Dir Wind Speed Gust Speed Precip Events Conditions
12:04 AM 24.8 °F 16.1 °F 21.2 °F 86% 29.98 in 1.2 mi East 8.1 mph - 0.00 in Snow Light Snow
12:14 AM 24.8 °F 16.1 °F 21.2 °F 86% 29.98 in 2.5 mi East 8.1 mph - 0.00 in Snow Light Snow
1:21 AM 24.8 °F 17.9 °F 21.2 °F 86% 29.97 in 1.8 mi East 5.8 mph - 0.00 in Snow Light Snow
1:53 AM 25.0 °F 19.3 °F 23.0 °F 92% 30.01 in 0.8 mi East 4.6 mph - 0.02 in Snow Light Snow
2:26 AM 24.8 °F 20.5 °F 23.0 °F 93% 29.96 in 1.0 mi ENE 3.5 mph - 0.02 in Snow Light Snow
2:53 AM 25.0 °F 19.3 °F 21.9 °F 88% 30.00 in 0.5 mi ENE 4.6 mph - 0.03 in Fog , Snow Snow
3:16 AM 24.8 °F 17.9 °F 21.2 °F 86% 29.95 in 1.0 mi East 5.8 mph - 0.02 in Snow Light Snow
3:24 AM 24.8 °F 16.9 °F 21.2 °F 86% 29.95 in 0.8 mi East 6.9 mph - 0.02 in Snow Light Snow
3:38 AM 24.8 °F 16.9 °F 21.2 °F 86% 29.95 in 1.0 mi East 6.9 mph - 0.02 in Snow Light Snow
3:50 AM 24.8 °F 17.9 °F 21.2 °F 86% 29.95 in 0.8 mi East 5.8 mph - 0.03 in Snow Light Snow
3:53 AM 25.0 °F 18.1 °F 21.9 °F 88% 29.99 in 0.8 mi East 5.8 mph - 0.03 in Snow Light Snow
4:43 AM 24.8 °F 17.9 °F 21.2 °F 86% 29.96 in 1.0 mi East 5.8 mph - 0.02 in Snow Light Snow
4:53 AM 25.0 °F 17.1 °F 21.9 °F 88% 30.00 in 1.0 mi East 6.9 mph - 0.02 in Snow Light Snow
5:22 AM 24.8 °F 16.9 °F 21.2 °F 86% 29.96 in 0.8 mi East 6.9 mph - 0.01 in Snow Light Snow
5:44 AM 24.8 °F 16.1 °F 21.2 °F 86% 29.96 in 1.0 mi ENE 8.1 mph - 0.02 in Snow Light Snow
5:53 AM 25.0 °F 17.1 °F 21.9 °F 88% 30.00 in 1.0 mi ENE 6.9 mph - 0.02 in Snow Light Snow
7:53 AM 25.0 °F 15.5 °F 21.9 °F 88% 30.02 in 0.8 mi ENE 9.2 mph - 0.01 in Snow Light Snow
8:10 AM 24.8 °F 16.1 °F 21.2 °F 86% 29.98 in 1.0 mi ENE 8.1 mph - 0.00 in Snow Light Snow
8:53 AM 26.1 °F 18.4 °F 21.9 °F 84% 30.04 in 1.2 mi ENE 6.9 mph - 0.00 in Snow Light Snow
9:18 AM 26.6 °F 20.0 °F 21.2 °F 80% 30.00 in 0.8 mi NE 5.8 mph - 0.00 in Snow Light Snow
9:27 AM 26.6 °F 19.1 °F 21.2 °F 80% 30.01 in 0.8 mi NE 6.9 mph - 0.00 in Snow Light Snow
9:49 AM 26.6 °F 16.8 °F 21.2 °F 80% 30.01 in 1.0 mi NE 10.4 mph - 0.00 in Snow Light Snow
9:53 AM 26.1 °F 16.8 °F 21.0 °F 81% 30.06 in 1.2 mi NE 9.2 mph - 0.00 in Snow Light Snow
10:12 AM 26.6 °F 18.2 °F 21.2 °F 80% 30.02 in 0.8 mi NE 8.1 mph - 0.01 in Snow Light Snow
10:32 AM 26.6 °F 17.5 °F 21.2 °F 80% 30.03 in 0.8 mi NNE 9.2 mph - 0.01 in Snow Light Snow
10:53 AM 26.1 °F 16.8 °F 21.9 °F 84% 30.08 in 0.5 mi NNE 9.2 mph - 0.01 in Fog , Snow Snow
11:19 AM 26.6 °F 18.2 °F 21.2 °F 80% 30.04 in 0.5 mi NE 8.1 mph - 0.01 in Fog , Snow Light Snow
11:39 AM 26.6 °F 18.2 °F 21.2 °F 80% 30.04 in 0.8 mi NE 8.1 mph - 0.01 in Snow Light Snow
11:53 AM 27.0 °F 17.3 °F 23.0 °F 85% 30.09 in 1.0 mi NNE 10.4 mph - 0.01 in Snow Light Snow
12:26 PM 28.4 °F 19.7 °F 21.2 °F 74% 30.05 in 2.0 mi NNE 9.2 mph - 0.00 in Snow Light Snow
12:44 PM 28.4 °F 20.4 °F 21.2 °F 74% 30.06 in 3.0 mi NNE 8.1 mph - 0.00 in Snow Light Snow
12:53 PM 28.0 °F 19.3 °F 21.9 °F 78% 30.09 in 3.0 mi NNE 9.2 mph - 0.00 in Snow Light Snow
1:53 PM 28.9 °F 19.2 °F 21.9 °F 75% 30.10 in 5.0 mi North 11.5 mph - 0.00 in   Haze
2:53 PM 30.0 °F 21.7 °F 21.9 °F 72% 30.12 in 10.0 mi North 9.2 mph - N/A   Overcast
3:25 PM 30.2 °F 20.8 °F 21.2 °F 69% 30.09 in 10.0 mi North 11.5 mph - N/A   Overcast
3:53 PM 28.9 °F 19.8 °F 21.9 °F 75% 30.15 in 8.0 mi North 10.4 mph - 0.00 in Snow Light Snow
4:08 PM 28.4 °F 18.0 °F 21.2 °F 74% 30.12 in 2.5 mi North 12.7 mph - 0.00 in Snow Light Snow
4:36 PM 28.4 °F 19.1 °F 21.2 °F 74% 30.13 in 3.0 mi North 10.4 mph - 0.00 in Snow Light Snow
4:53 PM 28.0 °F 18.1 °F 21.0 °F 75% 30.18 in 6.0 mi North 11.5 mph 17.3 mph 0.00 in Snow Light Snow
5:11 PM 28.4 °F 19.7 °F 21.2 °F 74% 30.15 in 7.0 mi North 9.2 mph - 0.00 in   Mostly Cloudy
5:53 PM 28.0 °F 20.8 °F 19.0 °F 69% 30.20 in 10.0 mi North 6.9 mph - 0.00 in   Mostly Cloudy
6:09 PM 26.6 °F 19.1 °F 19.4 °F 74% 30.18 in 10.0 mi North 6.9 mph - N/A   Scattered Clouds
6:53 PM 26.1 °F 17.6 °F 19.0 °F 75% 30.24 in 10.0 mi North 8.1 mph - N/A   Overcast
7:06 PM 26.6 °F 17.5 °F 19.4 °F 74% 30.20 in 10.0 mi NNW 9.2 mph - N/A   Overcast
7:13 PM 26.6 °F 20.0 °F 19.4 °F 74% 30.20 in 8.0 mi North 5.8 mph - N/A   Overcast
7:46 PM 24.8 °F 17.9 °F 19.4 °F 80% 30.20 in 8.0 mi NNW 5.8 mph - 0.00 in Snow Light Snow
7:53 PM 23.0 °F 15.8 °F 18.0 °F 81% 30.25 in 10.0 mi NW 5.8 mph - 0.00 in   Overcast
8:01 PM 24.8 °F 17.9 °F 19.4 °F 80% 30.21 in 10.0 mi NW 5.8 mph - N/A   Overcast
8:49 PM 26.6 °F 18.2 °F 21.2 °F 80% 30.23 in 10.0 mi NNW 8.1 mph - N/A   Overcast
8:53 PM 26.1 °F 16.8 °F 21.0 °F 81% 30.27 in 10.0 mi NNW 9.2 mph - N/A   Overcast
9:53 PM 25.0 °F 14.2 °F 18.0 °F 75% 30.30 in 10.0 mi North 11.5 mph - N/A   Scattered Clouds
10:53 PM 21.9 °F 12.5 °F 16.0 °F 78% 30.31 in 10.0 mi North 8.1 mph - N/A   Clear
11:53 PM 23.0 °F 15.8 °F 17.1 °F 78% 30.32 in 10.0 mi North 5.8 mph - N/A   Overcast